Hourly Data Report for October 31, 2016

All times are specified in Local Standard Time (LST). Add 1 hour to adjust for Daylight Saving Time where and when it is observed.

MONCTON INTL A
NEW BRUNSWICK

46°06'44.000" N
64°40'43.000" W
70.70 m
8103201
71705
YQM

Download Data

Hourly Data (October 2016)
Hourly Data Report for October 31, 2016
Temp Definition
°C
Dew Point Temp Definition
°C
Rel Hum Definition
%
Wind Dir Definition
10's deg

Wind Spd Definition
km/h
Visibility Definition
km
Stn Press Definition
kPa
Hmdx Definition


Wind Chill Definition


Weather Definition


TIME
00:00 Legend Double Dagger 4.8 4.5 98 24 9 1.6 100.12     Fog
01:00 Legend Double Dagger 5.0 4.7 98 24 7 1.2 100.12     Drizzle,Fog
02:00 Legend Double Dagger 5.0 4.9 99 23 9 2.0 100.14     Drizzle,Fog
03:00 Legend Double Dagger 5.1 5.0 99 23 9 2.4 100.13     Drizzle,Fog
04:00 Legend Double Dagger 5.3 5.2 99 25 9 1.2 100.16     Drizzle,Fog
05:00 Legend Double Dagger 5.2 5.1 99 30 10 12.9 100.18     Cloudy
06:00 Legend Double Dagger 5.1 4.8 98 31 14 16.1 100.20     LegendNANA
07:00 Legend Double Dagger 5.0 4.7 98 32 8 2.0 100.28     Drizzle,Fog
08:00 Legend Double Dagger 4.7 4.3 97 32 14 2.4 100.35     Drizzle,Fog
09:00 Legend Double Dagger 4.8 4.1 95 31 17 16.1 100.44     LegendNANA
10:00 Legend Double Dagger 5.3 4.7 96 33 14 4.8 100.49     Rain Showers,Fog
11:00 Legend Double Dagger 5.3 4.4 94 31 16 12.9 100.56     Cloudy
12:00 Legend Double Dagger 5.8 4.9 94 30 16 19.3 100.57     Rain Showers
13:00 Legend Double Dagger 6.6 5.1 90 33 14 24.1 100.58     LegendNANA
14:00 Legend Double Dagger 6.2 5.0 92 35 12 24.1 100.61     Rain Showers
15:00 Legend Double Dagger 6.5 4.5 87 35 18 24.1 100.68     LegendNANA
16:00 Legend Double Dagger 6.0 4.7 91 35 10 24.1 100.79     LegendNANA
17:00 Legend Double Dagger 5.8 4.6 92 32 14 24.1 100.86     Cloudy
18:00 Legend Double Dagger 5.5 4.8 95 33 15 24.1 100.97     Drizzle
19:00 Legend Double Dagger 5.2 4.8 97 33 14 24.1 101.06     Drizzle
20:00 Legend Double Dagger 5.2 4.8 97 32 16 16.1 101.11     Rain
21:00 Legend Double Dagger 5.3 4.9 97 33 16 19.3 101.17     Rain Showers
22:00 Legend Double Dagger 5.2 4.8 97 32 17 24.1 101.27     Rain Showers
23:00 Legend Double Dagger 4.7 4.3 97 32 14 24.1 101.30     Mostly Cloudy

Notes on Data Quality.

Legend

  • E = Estimated
  • M = Missing
  • NA = Not Available
  • ‡ = Partner data that is not subject to review by the National Climate Archives
Date modified: